Location: ??????
(55.6361°N, 38.0803°E)
Time: 01:48:23
(UTC+00:00)

USA 234 - Pass Details

Date: 30 March 2020
Orbit: 1102 x 1106 km, 123.0° (Epoch: 14 May)

Event Time Altitude Azimuth Distance (km) Brightness Sun altitude
Rises 00:10:16 0° 141° (SE) 3,910 6.1 -22.3°
Reaches altitude 10° 00:12:53 10° 148° (SSE) 2,955 5.4 -22.0°
Maximum altitude 00:19:04 44° 219° (SW) 1,486 3.5 -21.4°
Drops below altitude 10° 00:25:17 10° 290° (WNW) 2,967 5.3 -20.7°
Sets 00:27:56 0° 297° (WNW) 3,928 6.0 -20.5°
